Погода в Пешково

Россия / Ростовская область     47°01′04″N   39°23′30″E
темп.,
°C
ветер,
м/с
пор.,
м/с
влажн.,
%
обл.,
%
осадки,
мм/ч
давл.,
гПа
погр.,
м
14 мая, пт
пт1400:00+15в410875 0.0 1012159
03:00+14в513825 0.0 1011217
06:00+15вюв5138241 0.0 1011271
09:00+20вюв6966100 0.0 1011412
12:00+25вюв5656100 0.0 1011658
15:00+28ююв445219 0.0 10111024
18:00+26юв2467100 0.0 1010108
21:00+21ююз118586 0.0 101112
15 мая, сб
сб1500:00+17зсз33766 0.0 101140
03:00+17зсз33750 0.0 101139
06:00+16с23690 0.0 101252
09:00+21сз335776 0.0 1013275
12:00+25зсз224815 0.0 1013679
15:00+26зсз32475 0.0 1013841
18:00+23сз34645 0.0 1013141
21:00+18зсз22625 0.1 101314
16 мая, вс
вс1600:00+17ссз227196 0.0 101215
03:00+17ссз3382100 0.2 101146
06:00+18всв3483100 0.0 101191
09:00+21всв5662100 0.0 1010394
12:00+24всв5656100 0.0 1009698
15:00+26в5654100 0.0 10081001
18:00+24в36655 0.0 1007435
21:00+20всв347889 0.0 100658
17 мая, пн
пн1700:00+18в413705 0.0 1005236
03:00+16в512645 0.0 1005260
06:00+15в497342 0.0 1006185
09:00+21вюв68595 0.0 1006462
12:00+25юв335381 0.0 1007937
15:00+27зюз2353100 0.0 10071323
18:00+22з5574100 0.0 1007201
21:00+19ююз4886100 0.1 1010235
18 мая, вт
вт1800:00+18зюз388597 0.0 1009256
03:00+16зюз489052 0.0 1010282
06:00+16юз37936 0.1 1011229
09:00+21зюз567713 0.1 1012617
12:00+23з666272 0.0 10131112
15:00+22зсз676462 0.0 1013886
18:00+20з58701 0.0 1013482
21:00+16юз36760 0.0 1014100